Wind_Speed
5 4 4 4 4 5 7 7 6 5 4 3 3 2 2 2 3 3 3 3 4 5 5 5 5 6 7 8 9 10 10 10 9 9 8 6 6 5 4 4 4 3 3 2 2 2 2 2 2
7 7 6 6 4 5 9 7 7 7 6 5 4 4 3 3 4 3 3 3 4 5 5 5 6 7 8 9 10 10 10 10 11 10 9 8 8 7 6 6 5 5 4 3 2 2 2 1 1
9 9 8 8 7 9 10 9 8 8 9 8 7 6 5 5 5 5 4 4 5 5 5 6 7 8 8 9 10 11 11 11 11 11 11 11 10 10 9 9 8 7 6 6 5 4 4 4 3
12 11 10 10 11 13 13 12 11 11 10 10 10 9 8 8 7 6 6 5 6 6 6 7 7 8 9 10 10 11 11 12 12 13 13 13 13 13 12 11 11 10 9 8 8 7 7 6 6
14 13 13 12 15 16 16 15 13 12 12 12 11 11 10 10 9 8 8 7 7 7 7 8 8 9 10 10 11 12 13 14 14 14 15 15 15 15 15 14 14 13 12 11 11 10 10 10 9
16 15 15 15 18 19 19 17 16 14 13 13 13 13 12 11 10 10 9 8 9 9 10 10 11 11 12 13 14 15 16 16 16 17 17 18 18 18 18 17 17 16 15 15 14 13 13 13 12
18 18 18 19 20 22 21 19 17 15 14 14 14 14 13 12 11 11 10 10 11 11 12 13 13 14 15 16 17 18 19 19 19 19 20 21 21 21 21 21 20 19 18 17 17 16 16 16 15
20 19 19 21 22 24 23 21 18 16 15 14 14 15 14 14 13 12 12 12 13 14 15 15 16 17 18 19 20 21 21 22 22 22 23 23 24 24 24 23 23 22 20 20 19 19 19 19 18
21 21 20 22 24 25 25 23 20 18 16 15 15 15 15 15 14 14 14 15 15 16 17 18 19 20 21 22 23 23 24 25 25 25 26 27 27 27 26 25 25 24 23 22 21 21 21 21 20
23 22 22 24 24 25 25 24 23 20 19 18 17 17 16 17 16 16 17 18 19 20 20 21 22 23 25 25 26 27 27 27 28 28 29 29 29 29 29 28 27 26 25 24 23 22 21 21 21
24 23 24 24 25 25 25 25 25 23 22 21 19 19 19 19 20 20 20 21 22 23 23 24 25 25 27 28 28 29 30 30 30 31 31 31 32 32 31 31 29 28 28 26 25 24 23 23 23
25 24 24 25 26 26 26 26 27 26 26 24 23 22 22 22 22 23 24 25 25 26 26 26 27 28 29 30 31 31 32 33 33 33 33 33 34 34 34 33 32 31 30 28 27 26 25 24 24
25 24 24 24 25 26 27 27 28 28 28 27 26 26 25 24 25 26 27 28 29 29 30 30 30 31 32 33 34 34 34 35 35 35 36 35 35 36 36 36 36 34 31 30 28 27 26 26 25
24 23 23 24 24 25 26 27 28 28 29 29 29 29 28 28 28 28 29 30 31 32 33 33 33 34 35 36 37 36 36 37 37 37 36 36 37 37 38 38 38 36 34 32 30 29 28 27 26
22 21 21 22 23 24 24 26 27 27 28 29 29 30 30 31 31 31 32 32 33 33 35 35 36 36 37 38 39 38 38 38 37 37 36 37 38 38 38 38 39 38 37 35 33 31 29 28 27
17 16 17 20 21 22 22 24 24 25 26 27 27 28 28 30 30 31 32 32 34 35 37 38 38 38 39 40 39 39 39 38 37 36 35 36 36 37 38 37 38 40 38 36 33 33 30 29 27
12 11 13 18 19 19 20 22 23 23 23 23 23 23 24 26 28 29 31 33 35 36 38 39 39 40 41 40 40 39 40 39 37 36 37 37 35 35 36 35 36 37 37 37 35 33 32 29 29
9 9 12 15 17 18 19 21 22 22 22 22 22 22 23 24 26 28 30 32 35 37 38 40 41 41 41 41 41 41 40 39 37 36 36 36 34 31 30 33 33 34 35 35 35 34 33 31 30
9 8 11 14 15 17 18 20 21 22 22 22 22 23 24 25 27 29 31 33 35 37 39 40 42 42 43 42 41 40 39 38 37 35 33 32 31 30 30 32 32 34 35 34 33 32 32 31 30
6 6 9 13 13 14 16 17 19 20 20 21 21 23 24 26 28 30 31 33 34 36 38 40 41 41 41 41 40 40 40 38 36 34 33 31 30 29 28 29 30 32 33 34 32 31 31 30 30
5 5 8 10 10 10 11 13 15 16 17 18 19 21 23 25 27 29 31 33 33 34 36 37 38 39 39 39 40 40 39 38 36 35 33 31 30 30 29 29 30 31 31 32 31 31 31 31 31
5 7 6 6 6 8 6 9 13 13 15 16 18 19 21 23 25 27 29 30 31 33 34 35 36 38 39 39 39 39 38 37 37 36 35 34 32 31 32 32 32 33 33 33 33 33 33 34 33
5 5 5 5 5 7 7 7 14 14 15 16 18 20 22 24 26 28 30 31 33 34 36 37 38 39 40 40 40 40 40 40 40 39 39 39 38 37 36 36 36 36 36 36 36 36 36 36 36
4 4 5 6 6 8 10 9 15 16 16 18 19 21 23 25 28 30 31 33 34 36 37 38 39 40 41 42 43 43 44 44 44 44 43 43 42 42 42 42 41 41 40 40 40 40 40 39 39
3 5 6 6 7 10 13 12 15 16 17 19 21 23 25 27 29 31 32 34 36 37 39 40 41 42 43 44 45 46 47 47 47 47 48 47 47 47 47 46 47 46 46 46 45 45 45 44 43
5 5 6 6 7 11 13 13 15 17 19 20 22 24 26 28 30 32 34 36 37 39 41 42 43 43 44 45 45 46 46 47 47 47 48 49 49 50 52 52 52 52 52 51 52 52 51 50 49
6 6 7 8 9 9 12 15 15 17 20 21 23 25 27 30 32 34 36 38 39 41 42 43 44 44 45 45 45 44 44 45 46 46 47 48 49 50 51 52 54 56 56 57 58 57 57 57 55
5 6 7 7 7 8 13 17 18 19 21 23 25 28 30 32 34 37 38 40 42 43 44 44 45 44 43 42 42 42 43 44 45 46 47 48 49 50 51 53 54 56 58 60 61 63 63 62 61
7 7 7 8 9 9 11 17 19 21 23 25 28 30 32 34 37 39 41 42 43 44 45 45 44 43 43 43 44 44 45 46 46 47 48 49 50 51 52 54 55 57 59 61 63 64 66 67 66
7 8 9 11 12 13 15 20 21 23 25 27 30 32 34 37 39 41 43 44 45 46 46 45 45 44 45 45 45 45 47 49 50 51 51 52 52 54 55 55 56 57 58 61 63 66 67 69 70
Wind_Direction
284 286 289 291 317 334 320 320 332 337 339 333 321 314 308 303 300 304 303 315 320 319 315 319 329 330 323 315 312 310 311 313 314 315 314 315 320 327 333 341 350 357 2 10 21 30 38 47 56
278 277 275 277 291 305 293 298 311 324 328 330 321 310 302 301 295 292 302 311 318 319 317 324 330 329 323 315 310 308 308 309 310 310 309 309 311 314 316 316 319 319 317 312 305 304 309 320 336
274 272 270 273 270 265 271 281 295 305 311 315 314 308 304 304 294 292 301 311 319 321 324 330 333 329 322 315 311 309 308 308 308 307 306 306 306 307 306 304 303 301 296 291 285 282 282 284 288
274 270 269 269 270 268 268 275 287 293 297 301 304 302 297 297 299 296 297 307 312 317 324 329 328 324 319 315 312 311 310 310 308 307 305 304 302 301 299 298 295 293 288 284 280 276 275 276 278
273 270 267 267 266 270 272 276 283 291 293 294 296 298 294 291 293 293 293 299 305 309 315 322 324 321 317 315 314 312 310 310 310 307 305 303 301 298 296 293 290 288 285 281 277 274 272 271 271
270 270 263 259 261 267 271 277 281 287 290 291 291 291 289 289 288 289 289 291 298 305 309 310 312 313 314 314 313 311 310 309 308 307 305 302 300 298 296 291 288 285 283 280 276 272 269 268 267
268 267 261 259 260 265 268 274 278 281 284 285 286 286 284 284 284 285 288 293 296 300 302 303 305 308 310 308 308 307 307 306 305 305 303 301 297 295 293 290 287 284 282 279 275 271 268 266 265
268 265 262 260 260 262 268 272 274 276 279 279 278 279 279 280 282 283 286 291 294 296 298 300 302 303 304 305 305 306 306 304 302 302 300 297 294 291 290 288 286 282 279 277 274 270 267 265 264
267 263 260 257 256 258 265 269 272 275 277 276 274 272 275 277 280 281 283 288 291 293 297 299 301 302 303 303 303 302 302 302 298 298 297 295 290 288 286 284 283 280 278 276 272 269 266 264 263
267 263 259 257 256 257 260 264 268 271 273 272 270 270 273 277 280 284 285 287 289 290 294 297 299 300 300 301 300 299 299 298 296 295 293 291 288 284 281 279 278 277 275 273 271 267 266 262 260
268 263 260 258 256 255 255 258 261 261 263 268 270 272 276 280 282 284 285 286 288 291 294 295 295 297 297 298 299 299 297 296 295 293 291 289 285 282 279 276 274 273 272 271 268 264 263 261 258
268 264 261 258 258 256 254 255 257 260 262 266 269 272 275 279 281 283 284 287 289 289 289 290 292 294 295 295 297 298 296 296 294 292 290 289 283 280 276 274 272 270 268 267 265 262 260 259 257
265 264 261 259 258 257 257 256 258 260 263 265 267 270 273 275 277 279 282 285 286 287 287 288 290 292 293 294 294 293 293 294 292 291 288 287 285 278 274 272 269 266 264 262 262 260 259 258 256
263 263 262 260 259 259 259 259 260 261 263 265 266 268 270 271 273 276 278 280 282 285 286 287 289 290 291 292 293 291 291 291 289 288 286 283 281 279 272 270 268 263 259 258 257 258 258 257 256
262 262 263 261 261 260 262 262 263 264 265 266 268 268 268 269 271 272 274 276 279 282 284 286 286 287 288 290 292 291 291 291 290 289 285 283 282 280 275 268 265 261 257 256 256 255 256 256 254
262 262 262 263 263 263 263 264 267 267 268 269 269 270 269 267 268 270 271 274 278 281 282 283 284 285 286 288 291 291 292 293 292 290 288 284 281 277 274 268 262 258 255 254 254 254 255 255 253
260 250 252 265 265 265 264 266 270 271 272 273 274 274 272 269 269 270 272 276 278 280 281 282 284 286 287 290 290 289 291 292 293 290 288 285 280 277 272 265 261 255 251 251 252 253 253 252 249
241 245 254 262 267 268 268 270 273 274 275 275 275 275 274 273 273 274 276 279 281 282 283 284 285 287 288 288 289 288 290 290 290 288 288 284 278 274 267 261 258 254 252 250 251 251 250 249 246
251 251 257 267 270 270 271 273 275 276 277 278 277 276 274 275 277 278 280 282 284 284 285 285 286 286 287 287 288 287 288 288 288 287 287 284 277 269 264 259 255 253 252 251 250 248 247 245 244
267 269 274 279 277 277 276 276 276 277 277 278 278 277 277 278 280 282 283 285 286 287 287 287 287 288 288 288 289 289 288 287 286 286 284 282 275 271 267 261 256 254 251 250 250 247 245 243 243
287 268 272 285 288 285 286 289 283 281 280 280 282 283 283 284 286 288 288 288 290 291 292 291 290 291 292 291 290 290 288 286 285 284 284 280 276 269 265 261 257 254 253 249 247 245 244 244 243
275 281 289 299 310 302 301 295 293 291 290 289 291 291 291 290 291 293 294 294 295 295 296 295 294 294 293 292 291 291 289 285 284 283 280 279 277 272 268 264 260 257 254 250 246 244 244 244 243
261 286 300 306 304 301 307 292 293 297 296 297 296 296 295 296 297 297 298 298 298 298 297 296 296 295 294 293 292 290 288 286 284 282 279 276 272 269 266 263 259 258 254 251 248 246 245 244 243
291 310 322 331 327 297 297 296 291 300 300 300 300 300 301 301 301 300 300 300 300 300 299 298 296 295 294 292 291 289 288 286 284 281 278 274 270 266 264 262 258 255 253 251 249 247 245 243 241
297 324 324 321 308 293 301 299 294 305 306 305 304 305 305 305 304 303 303 303 302 301 300 299 298 296 294 292 290 288 287 285 283 281 278 275 271 267 263 260 257 254 252 250 248 246 244 243 241
284 295 295 293 295 298 306 302 307 309 310 309 308 309 309 309 308 308 307 307 306 304 303 302 300 298 296 294 291 289 286 284 282 280 277 275 272 268 264 260 257 254 251 249 247 246 244 244 242
291 289 294 304 309 311 306 310 313 313 315 316 316 315 314 314 313 312 312 311 309 307 305 303 302 300 298 295 293 291 288 286 284 281 278 275 273 270 266 262 259 256 252 249 247 246 245 244 242
299 305 311 316 311 310 311 314 317 321 321 321 320 320 319 318 317 316 315 314 312 310 308 307 306 304 302 299 297 295 293 290 287 284 281 277 273 270 267 264 261 257 254 250 247 245 244 243 242
321 323 326 325 321 319 311 307 323 324 325 324 324 324 323 322 321 319 318 316 315 313 312 311 309 307 304 302 300 298 296 293 290 287 284 280 276 272 269 266 262 258 255 251 248 246 244 242 241
332 334 334 330 326 326 323 315 326 325 325 325 326 326 325 324 323 322 321 320 318 317 315 313 311 309 306 304 302 300 298 296 293 290 286 283 278 275 271 267 264 260 256 252 249 246 244 243 241
Height
5932 5932 5932 5932 5933 5934 5933 5932 5931 5930 5929 5928 5927 5926 5926 5925 5926 5927 5924 5922 5921 5921 5920 5920 5920 5919 5918 5918 5917 5916 5916 5915 5914 5913 5912 5911 5911 5910 5909 5908 5907 5907 5906 5906 5905 5905 5904 5904 5903
5931 5931 5932 5933 5933 5935 5933 5931 5931 5930 5929 5928 5927 5926 5925 5924 5924 5923 5922 5921 5920 5919 5919 5918 5918 5918 5917 5917 5916 5915 5915 5914 5913 5912 5911 5910 5910 5909 5908 5907 5907 5906 5906 5905 5905 5904 5904 5903 5903
5930 5931 5932 5932 5932 5933 5932 5931 5930 5929 5928 5927 5926 5925 5925 5924 5923 5922 5921 5920 5919 5918 5917 5917 5916 5916 5916 5916 5915 5914 5913 5912 5911 5910 5910 5909 5908 5907 5907 5906 5906 5905 5905 5904 5904 5903 5903 5903 5902
5929 5930 5931 5931 5931 5930 5929 5929 5929 5928 5928 5927 5926 5925 5923 5923 5921 5920 5919 5918 5917 5916 5915 5915 5915 5915 5914 5914 5914 5913 5912 5911 5910 5909 5908 5907 5906 5905 5905 5905 5904 5904 5903 5903 5903 5902 5902 5901 5901
5926 5928 5929 5930 5929 5927 5927 5927 5927 5927 5926 5926 5925 5923 5922 5921 5920 5919 5917 5916 5916 5915 5914 5913 5913 5913 5913 5913 5912 5911 5910 5909 5908 5907 5906 5905 5904 5904 5903 5902 5902 5902 5902 5901 5901 5900 5900 5900 5899
5924 5925 5927 5928 5926 5925 5925 5924 5925 5925 5924 5924 5923 5922 5920 5919 5918 5917 5916 5915 5914 5913 5913 5912 5912 5912 5911 5911 5910 5909 5908 5906 5905 5905 5904 5903 5902 5901 5900 5900 5899 5899 5899 5899 5898 5898 5897 5897 5897
5922 5922 5923 5923 5923 5922 5922 5922 5922 5923 5922 5922 5921 5920 5918 5917 5916 5915 5914 5913 5912 5912 5911 5910 5910 5909 5908 5907 5907 5906 5904 5903 5902 5901 5900 5899 5899 5898 5897 5896 5896 5896 5896 5895 5895 5895 5894 5894 5894
5917 5919 5919 5919 5919 5919 5918 5919 5919 5920 5920 5920 5919 5918 5917 5916 5914 5913 5912 5911 5910 5909 5908 5908 5907 5906 5905 5904 5903 5902 5901 5900 5898 5897 5896 5895 5894 5893 5893 5892 5892 5892 5891 5891 5891 5891 5890 5890 5890
5912 5915 5915 5915 5915 5914 5914 5915 5916 5916 5917 5916 5915 5915 5914 5913 5912 5911 5910 5909 5908 5907 5906 5905 5904 5903 5901 5900 5899 5898 5896 5895 5894 5893 5891 5890 5889 5888 5888 5887 5887 5887 5886 5886 5886 5886 5886 5886 5886
5908 5909 5910 5909 5909 5910 5910 5911 5912 5913 5913 5912 5912 5912 5911 5911 5910 5909 5908 5907 5905 5904 5903 5902 5900 5899 5898 5896 5895 5893 5892 5890 5888 5887 5885 5884 5883 5883 5882 5881 5881 5881 5881 5881 5881 5881 5881 5881 5881
5903 5904 5904 5904 5904 5905 5906 5906 5907 5908 5909 5908 5908 5909 5908 5908 5907 5906 5905 5903 5902 5901 5899 5898 5896 5895 5894 5892 5890 5888 5886 5884 5882 5880 5879 5877 5877 5876 5875 5875 5874 5874 5874 5874 5875 5875 5875 5876 5876
5898 5898 5898 5898 5899 5900 5901 5901 5902 5903 5904 5904 5904 5905 5905 5904 5904 5902 5901 5900 5898 5897 5895 5894 5892 5891 5889 5887 5885 5883 5880 5878 5876 5874 5872 5870 5869 5868 5868 5868 5867 5867 5867 5868 5868 5869 5870 5870 5871
5891 5892 5892 5893 5894 5895 5896 5897 5897 5898 5899 5899 5900 5900 5900 5900 5899 5898 5897 5895 5894 5892 5891 5889 5887 5885 5883 5881 5879 5877 5874 5872 5869 5866 5865 5863 5862 5860 5859 5859 5859 5859 5860 5861 5862 5863 5863 5864 5865
5886 5886 5887 5888 5889 5889 5890 5891 5892 5893 5894 5894 5895 5895 5895 5895 5894 5893 5892 5890 5888 5886 5885 5883 5881 5879 5877 5874 5872 5869 5867 5864 5862 5859 5857 5854 5852 5851 5850 5850 5851 5851 5852 5853 5855 5856 5857 5857 5859
5880 5882 5882 5883 5884 5885 5886 5886 5887 5887 5888 5889 5889 5889 5889 5888 5887 5887 5886 5884 5882 5881 5879 5877 5874 5872 5870 5867 5865 5862 5859 5856 5853 5850 5848 5845 5843 5842 5842 5842 5843 5843 5844 5845 5847 5848 5849 5851 5852
5877 5879 5879 5878 5879 5880 5883 5882 5882 5882 5882 5882 5882 5882 5882 5882 5881 5880 5879 5877 5876 5874 5872 5870 5867 5865 5862 5859 5856 5853 5850 5848 5845 5841 5838 5836 5835 5834 5833 5832 5833 5834 5835 5837 5840 5841 5843 5844 5846
5874 5877 5877 5875 5875 5876 5878 5877 5877 5877 5877 5877 5877 5876 5876 5875 5875 5874 5872 5871 5870 5867 5865 5862 5859 5857 5854 5851 5848 5845 5842 5839 5835 5832 5829 5827 5825 5824 5823 5823 5824 5824 5827 5830 5832 5834 5835 5837 5838
5874 5874 5874 5873 5872 5872 5872 5872 5872 5872 5872 5872 5872 5871 5871 5870 5869 5868 5866 5865 5863 5860 5858 5855 5852 5849 5846 5843 5839 5836 5833 5830 5826 5823 5820 5818 5815 5814 5813 5814 5816 5817 5819 5822 5824 5826 5828 5829 5831
5869 5870 5871 5869 5869 5869 5869 5868 5868 5868 5867 5867 5866 5866 5865 5864 5863 5861 5860 5857 5855 5852 5849 5846 5843 5839 5836 5833 5830 5826 5823 5820 5817 5815 5811 5809 5807 5806 5806 5806 5809 5810 5812 5815 5816 5818 5820 5822 5824
5867 5868 5868 5866 5866 5866 5865 5864 5864 5863 5862 5862 5861 5860 5859 5858 5856 5855 5852 5850 5847 5843 5840 5837 5833 5830 5826 5823 5820 5817 5814 5810 5808 5806 5804 5801 5800 5799 5799 5800 5801 5803 5805 5807 5808 5810 5812 5814 5817
5866 5867 5866 5864 5863 5862 5862 5861 5860 5859 5858 5857 5856 5855 5853 5852 5850 5847 5845 5842 5839 5835 5832 5828 5824 5821 5817 5814 5811 5807 5804 5801 5798 5797 5795 5794 5793 5792 5792 5793 5794 5796 5797 5799 5800 5802 5805 5807 5809
5865 5863 5862 5861 5861 5861 5861 5861 5857 5855 5854 5853 5851 5850 5848 5846 5844 5841 5838 5834 5831 5828 5824 5820 5816 5812 5808 5805 5801 5798 5795 5792 5790 5787 5786 5785 5785 5784 5785 5786 5787 5788 5789 5790 5792 5794 5796 5798 5801
5862 5861 5860 5860 5859 5859 5858 5859 5855 5852 5851 5849 5847 5845 5843 5841 5838 5835 5831 5827 5824 5820 5816 5811 5807 5803 5799 5795 5791 5788 5785 5782 5780 5777 5776 5776 5775 5775 5776 5776 5777 5778 5780 5781 5783 5785 5786 5789 5792
5860 5860 5859 5858 5859 5859 5857 5856 5853 5849 5848 5846 5844 5841 5838 5835 5832 5828 5824 5820 5816 5812 5807 5802 5798 5794 5789 5785 5781 5777 5774 5771 5768 5766 5765 5764 5764 5764 5764 5765 5766 5767 5768 5770 5772 5774 5776 5779 5781
5859 5860 5860 5860 5859 5857 5854 5853 5850 5847 5844 5842 5839 5836 5833 5830 5826 5822 5817 5813 5808 5803 5798 5793 5788 5783 5779 5774 5770 5766 5762 5758 5755 5753 5751 5750 5750 5750 5750 5751 5752 5753 5755 5757 5759 5762 5765 5767 5770
5858 5859 5860 5859 5858 5856 5851 5849 5847 5844 5841 5838 5835 5832 5828 5824 5819 5815 5810 5804 5799 5794 5788 5783 5777 5772 5767 5762 5758 5753 5749 5745 5742 5740 5737 5735 5734 5733 5734 5735 5736 5738 5740 5743 5745 5748 5751 5754 5758
5857 5857 5856 5856 5854 5853 5850 5846 5843 5840 5837 5834 5830 5826 5822 5817 5812 5807 5801 5795 5790 5784 5778 5772 5766 5760 5755 5749 5745 5740 5736 5732 5728 5725 5723 5720 5718 5717 5717 5717 5719 5721 5723 5726 5729 5732 5736 5739 5743
5856 5854 5854 5853 5852 5851 5849 5844 5841 5836 5833 5829 5825 5820 5815 5810 5804 5798 5792 5786 5779 5773 5766 5760 5753 5747 5741 5736 5731 5726 5722 5718 5714 5710 5707 5705 5703 5701 5700 5699 5700 5702 5704 5707 5710 5714 5718 5723 5727
5854 5853 5851 5850 5848 5847 5846 5844 5837 5832 5828 5824 5819 5814 5809 5803 5797 5790 5783 5776 5769 5762 5754 5747 5740 5734 5728 5723 5718 5713 5708 5703 5698 5694 5690 5688 5685 5683 5682 5681 5681 5682 5684 5686 5690 5694 5698 5703 5708
5852 5850 5849 5848 5845 5843 5841 5840 5832 5828 5823 5819 5814 5808 5802 5796 5789 5782 5774 5766 5758 5750 5742 5735 5728 5721 5715 5709 5703 5698 5692 5687 5682 5677 5673 5669 5666 5663 5661 5661 5661 5661 5663 5665 5669 5673 5677 5683 5688